Location: Danville Conservation Area
(38.8674°N, 91.5143°W)
Time: 11:05:40
(UTC-06:00)

ISS - Pass Details

Date: 05 December 2021
Orbit: 413 x 422 km, 51.6° (Epoch: 19 January)

Event Time Altitude Azimuth Distance (km) Brightness Sun altitude
Rises 17:51:24 0° 314° (NW) 2,381 0.5 -12.9°
Reaches altitude 10° 17:53:38 10° 323° (NW) 1,511 -0.7 -13.3°
Maximum altitude 17:56:47 35° 31° (NNE) 700 -3.0 -13.9°
Enters shadow 17:57:50 28° 70° (ENE) 827 -2.9 -14.0°
